Flag for U.S.A. Weather past 2 weeks in Lexington-Fayette, Kentucky, U.S.A.

Now
42 °F

Clear.


Feels Like: 38 °F
Forecast: 40 / 71 °F
Wind: 6 mph from Southwest

Location: Blue Grass Airport

Current Time: May 22, 2015 at 5:40:06 AM

Latest Report: May 22, 2015 at 4:54 AM


Visibility: 8 mi

Pressure: 30.19 "Hg

Humidity: 92%

Dew point: 40 °F

Location of Lexington-FayetteLocation

Historic Weather in Lexington-Fayette — Graph

°F

Lexington-Fayette temperature yesterday

Maximum temperature yesterday: 58 °F (at 12:54 AM)
Minimum temperature yesterday: 47 °F (at 11:54 PM)
Average temperature yesterday: 53 °F

Past Weeks' High & Low Weather Summary

 TemperatureHumidityPressure
High88 °F (May 11, 2:54 PM)97% (May 12, 6:54 AM)30.37 "Hg (May 12, 6:54 AM)
Low42 °F (May 22, 3:54 AM)36% (May 8, 3:54 PM)29.91 "Hg (May 11, 6:54 PM)
Average68 °F69%30.11 "Hg
* Reported May 7 3:54 AM — May 22 3:54 AM, Lexington-Fayette, Weather by CustomWeather, © 2015

Note: Actual official high and low records may vary slightly from our data, if they occured in-between our weather recording intervals... More about our weather records

Advertising

Lexington-Fayette weather history for previous 24 hours

 ConditionsComfort  
Time TempWeatherWind HumidityBarometerVisibility
3:54 AM
Fri, May 22
42 °FClear.6 mph92%30.17 "Hg7 mi
2:54 AM44 °FClear.3 mph89%30.17 "Hg9 mi
1:54 AM44 °FClear.5 mph89%30.18 "Hg9 mi
12:54 AM44 °FClear.5 mph93%30.17 "Hg9 mi
11:54 PM
Thu, May 21
47 °FClear.No wind83%30.17 "Hg10 mi
10:54 PM48 °FClear.No wind80%30.16 "Hg10 mi
9:54 PM50 °FClear.3 mph74%30.14 "Hg10 mi
8:54 PM53 °FOvercast.3 mph66%30.12 "Hg10 mi
7:54 PM54 °FOvercast.7 mph64%30.11 "Hg10 mi
6:54 PM55 °FOvercast.13 mph62%30.10 "Hg10 mi
5:54 PM55 °FCloudy.8 mph67%30.09 "Hg10 mi
4:54 PM55 °FMostly cloudy.9 mph74%30.09 "Hg10 mi
4:03 PM52 °FMostly cloudy.10 mph83%30.09 "Hg8 mi
3:54 PM54 °FMore clouds than sun.8 mph77%30.08 "Hg10 mi
2:54 PM53 °FMostly cloudy.8 mph74%30.07 "Hg10 mi
1:54 PM55 °FOvercast.9 mph72%30.05 "Hg10 mi
12:54 PM55 °FCloudy.9 mph74%30.04 "Hg8 mi
11:54 AM55 °FOvercast.8 mph77%30.04 "Hg7 mi
10:54 AM54 °FOvercast.8 mph77%30.04 "Hg6 mi
9:54 AM53 °FOvercast.7 mph83%30.04 "Hg7 mi
8:54 AM51 °FFog.7 mph89%30.03 "Hg4 mi
7:54 AM50 °FFog.9 mph93%30.01 "Hg5 mi
6:49 AM50 °FFog.7 mph96%29.99 "Hg2 mi
5:54 AM52 °FFog.9 mph86%29.96 "Hg6 mi
Weather by CustomWeather, © 2015

See weather overviewHow to use our weather pages